Location: Kings Park
(40.8862°N, 73.2573°W)
Time: 05:13:36
(UTC+00:00)

Cosmos 1892 - Pass Details

Date: 29 October 2020
Orbit: 504 x 524 km, 82.5° (Epoch: 29 November)

Event Time Altitude Azimuth Distance (km) Brightness Sun altitude
Rises 23:15:37 0° 350° (N) 2,664 6.4 -16.3°
Reaches altitude 10° 23:17:46 10° 348° (NNW) 1,772 5.5 -16.7°
Maximum altitude 23:21:39 71° 264° (W) 558 3.0 -17.4°
Drops below altitude 10° 23:25:29 10° 181° (S) 1,756 5.4 -18.2°
Sets 23:27:36 0° 179° (S) 2,638 6.3 -18.6°
